Location: Pl�tzky
(52.0521°N, 11.8020°E)
Time: 07:41:56
(UTC+00:00)

Cosmos 2322 Rocket - Pass Details

Date: 22 November 2019
Orbit: 832 x 851 km, 71.0° (Epoch: 12 December)

Event Time Altitude Azimuth Distance (km) Brightness Sun altitude
Rises 16:56:01 0° 167° (SSE) 3,366 5.3 -15.3°
Reaches altitude 10° 16:58:52 10° 154° (SSE) 2,438 4.5 -15.8°
Maximum altitude 17:03:12 24° 102° (ESE) 1,681 3.2 -16.4°
Enters shadow 17:03:20 24° 100° (E) 1,682 3.2 -16.4°
